sat.trackr.live / text

‹ back to catalog

STARLINK-11553 [DTC]

NORAD 63006 · 2025-032B

PAYLOAD ACTIVE UNKNOWN

§ Identity

Operator
Country
US
Launch date
2025-02-15
Launch site
AFETR
Launch vehicle
Mass (kg)
RCS (m²)

Purposes: comms

External: N2YO · Heavens-Above · Gunter

§ Orbital elements

Epoch: 2026-09-20T21:59:36.869280Z

Period
91.67 min
Inclination
42.9992°
Eccentricity
0.0000860
Mean motion
15.70844503 rev/d
Perigee alt
355.9 km
Apogee alt
357.1 km
Semi-major
6,734.6 km
B*
1.0494e-3
RAAN
98.9594°
Arg perigee
275.8560°
Mean anomaly
84.2210°
Rev number
9,291

§ Raw data

STARLINK-11553 [DTC]1 63006U 25032B   26263.91639895  .00136456  00000+0  10494-2 0  99902 63006  42.9992  98.9594 0000860 275.8560  84.2210 15.70844503 92918

JSON: /api/v1/satellites/63006 · /tle

For live sub-satellite position, see the globe view (requires WebGL).

§ Visibility from observer

Set your observer location to see the next 7 days of passes ≥ 10°. The values pass through the URL so the page stays shareable.

No JS? Fill the form by hand. The geolocation button needs JavaScript.